Location: *
(28.3744°N, 81.5492°W)
Time: 14:01:41
(UTC+00:00)

USA 215 - Pass Details

Date: 15 June 2025
Orbit: 1102 x 1105 km, 123.0° (Epoch: 12 July)

Event Time Altitude Azimuth Distance (km) Brightness Sun altitude
Exits shadow 02:04:59 30° 130° (SE) 1,849 3.9 -19.1°
Maximum altitude 02:08:28 79° 48° (NE) 1,123 3.2 -19.6°
Drops below altitude 10° 02:15:00 10° 323° (NW) 2,959 6.7 -20.7°
Sets 02:17:29 0° 322° (NW) 3,919 7.7 -21.1°
